Location: Erzhausen
(51.8915°N, 9.9297°E)
Time: 14:53:12
(UTC+00:00)

Daily predictions for brighter satellites

Satellite Brightness Start Highest point End
(mag) Time Altitude Azimuth Time Altitude Azimuth Time Altitude Azimuth
Cosmos 1656 4.4 15:43:34 10° NW 15:49:02 60° WSW 15:54:31 10° SSE
Meteor 1-20 Rocket 4.4 15:43:34 10° N 15:49:21 59° ENE 15:55:08 10° SSE
Cosmos 1340 Rocket 2.8 15:45:19 10° N 15:49:25 74° ENE 15:53:29 10° SSE
Cosmos 2360 Rocket 3.8 15:47:47 10° NNW 15:51:15 16° NNE 15:54:43 10° ENE
CZ-4C R/B 3.2 15:50:39 10° NNE 15:54:31 67° ESE 15:58:07 10° S
Cosmos 1842 Rocket 3.6 15:50:30 10° S 15:54:58 72° E 15:59:28 10° NNE
ERBS 2.9 15:52:02 10° W 15:55:07 42° NNW 15:58:13 10° ENE
Cosmos 540 Rocket 4.3 15:51:30 10° SSE 15:55:59 32° ESE 16:00:29 10° NE
SL-16 R/B 4.1 15:51:20 10° N 15:56:40 31° NW 16:01:58 10° WSW
Lacrosse 5 rocket 1.4 15:54:47 10° WNW 15:58:32 51° NNE 16:02:28 10° E
ATLAS CENTAUR R/B 3.0 15:56:28 10° W 16:00:13 27° NNW 16:04:12 10° NNE
Cosmos 1092 Rocket 4.1 15:55:13 10° N 16:01:30 58° ENE 16:07:43 10° SSE
Cosmos 1666 4.0 16:00:12 10° NNE 16:02:58 19° ENE 16:05:43 10° ESE
USA 308 3.0 15:59:32 10° W 16:03:47 65° N 16:08:02 10° E
MOS 1 Rocket 3.9 16:00:06 10° N 16:05:06 63° WNW 16:09:45 10° SSW
COSMOS 2455 3.6 16:02:50 10° S 16:08:11 35° ESE 16:13:30 10° NE
Spot 1 4.5 16:05:52 10° NNE 16:10:34 60° ESE 16:15:28 10° S
Cosmos 2322 Rocket 3.3 16:08:39 10° NNW 16:13:18 25° NE 16:17:55 10° E
Cosmos 1697 Rocket 3.0 16:07:43 10° NNW 16:13:21 74° WSW 16:18:56 10° SSE
CZ-4C R/B 2.9 16:08:10 10° NW 16:15:02 72° NE 16:23:16 10° SE
Cosmos 1980 Rocket 2.2 16:12:56 10° NNW 16:18:38 73° ENE 16:24:16 10° SE
Cosmos 468 Rocket 4.0 16:14:18 10° SSW 16:19:27 75° ESE 16:24:41 10° NNE
Meteor 2-21 4.5 16:13:47 10° N 16:19:49 60° ENE 16:25:47 10° SSE
PSLV R/B 4.2 16:16:36 10° SE 16:20:01 36° ENE 16:23:32 10° N
NOAA 12 4.2 16:17:09 10° SSE 16:22:29 84° WSW 16:27:50 10° NNW
COSMO-SKYMED 1 4.1 16:22:41 14° ENE 16:24:11 17° E 16:26:59 10° SE
Cosmos 1627 Rocket 4.4 16:18:18 10° N 16:24:30 70° ENE 16:30:36 10° SSE
Cosmos 1898 Rocket 4.2 16:19:20 10° NNW 16:24:30 60° WSW 16:29:37 10° S
ATLAS CENTAUR R/B 3.2 16:15:43 10° SW 16:25:25 58° SE 16:28:48 16° ENE
Cosmos 2369 3.8 16:19:38 10° NNW 16:25:25 86° WSW 16:31:09 10° SSE
Meteor PRIRODA 4.1 16:22:47 10° S 16:26:23 64° WSW 16:30:00 10° NNW
Cosmos 1633 Rocket 3.6 16:24:17 10° N 16:28:18 34° ENE 16:32:19 10° SE
Cosmos 1933 3.3 16:24:41 10° S 16:28:40 65° E 16:32:42 10° NNE
USA 305 2.9 16:25:06 10° WNW 16:29:20 67° N 16:32:38 16° E
NOSS 2-2 (C) 4.5 16:25:31 10° NW 16:30:27 76° SW 16:37:24 10° SE
Cosmos 2279 Rocket 4.5 16:25:07 10° SSE 16:30:42 37° E 16:36:18 10° NNE
FengYun 1-2 T 4.3 16:25:28 10° SSE 16:31:03 85° WSW 16:36:38 10° NNW
Cosmos 2034 Rocket 4.1 16:25:15 10° SSW 16:31:25 80° W 16:37:38 10° N
Cosmos 1818 3.7 16:26:08 10° NW 16:31:34 58° NE 16:36:57 10° ESE
CZ-4B R/B 3.4 16:27:40 10° S 16:31:36 61° WSW 16:35:21 10° NNW
Cosmos 1812 3.6 16:29:02 10° SSE 16:32:22 29° E 16:34:50 15° NE
CORIOLIS 4.1 16:27:19 10° SSE 16:32:43 76° ENE 16:38:11 10° NNW
SL-16 R/B 2.8 16:27:35 10° NNW 16:32:48 35° NE 16:37:59 10° ESE
Cosmos 2237 Rocket 4.2 16:32:16 10° N 16:33:48 11° N 16:35:22 10° NNE
YAOGAN 1 4.0 16:36:55 17° NE 16:36:55 17° NE 16:39:29 10° NNE
AQUARIUS 4.1 16:32:44 10° SSE 16:37:13 79° ENE 16:41:44 10° NNW
USA 267 3.5 16:32:04 15° ENE 16:37:31 57° SE 16:43:56 10° SW
Cosmos 1151 Rocket 3.7 16:33:45 10° SSE 16:37:37 32° E 16:40:56 13° NNE
Cosmos 2082 Rocket 2.5 16:33:11 10° S 16:38:35 46° ESE 16:43:01 15° NE
Meteor 2-14 Rocket 4.4 16:34:57 10° N 16:41:06 83° E 16:47:11 10° SSE
SMAP 3.1 16:37:25 10° SSE 16:42:04 82° WSW 16:46:46 10° NNW
Meteor 1-14 Rocket 4.3 16:36:50 10° N 16:42:38 62° ENE 16:48:30 10° SSE
Cosmos 2333 Rocket 3.6 16:43:28 10° NNW 16:47:38 20° NNE 16:49:04 18° NE
ARGOS 3.4 16:43:37 10° SE 16:48:42 44° ENE 16:53:48 10° N
Cosmos 2278 3.7 16:42:56 10° NNW 16:48:42 85° ENE 16:54:24 10° SSE
MOS 1-B 4.3 16:43:05 10° SSE 16:48:48 69° ENE 16:54:34 10° NNW
Cosmos 2026 Rocket 4.0 16:43:00 10° N 16:49:10 84° W 16:55:14 10° S
Cosmos 1763 Rocket 3.8 16:44:12 10° SW 16:49:15 65° WNW 16:54:23 10° NNE
Cosmos 1602 4.5 16:45:56 10° NNW 16:49:43 55° W 16:53:30 10° S
Cosmos 1634 Rocket 4.0 16:43:53 10° S 16:50:11 73° E 16:56:31 10° NNE
CZ-4B DEB 4.2 16:46:33 10° SSE 16:52:04 89° WSW 16:57:36 10° NNW
GEOS 3 Rocket 4.1 16:49:28 20° E 16:52:40 40° NNE 16:57:29 10° NW
Cosmos 1933 Rocket 4.5 16:49:47 10° N 16:53:15 25° ENE 16:53:15 25° ENE
Cosmos 44 Rocket 3.2 16:48:43 10° NW 16:53:42 74° NE 16:58:30 10° SE
SeaSat 1 4.1 16:49:50 10° NNE 16:53:56 27° NW 16:58:02 10° W
SL-16 R/B 4.4 16:52:35 10° NNW 16:54:07 11° N 16:55:39 10° NNE
Cosmos 2150 Rocket 4.2 16:50:22 10° NNW 16:55:22 46° ENE 17:00:22 10° SE
Cosmos 1666 Rocket 3.5 16:51:38 10° N 16:56:06 73° ENE 17:00:29 10° SSE
Cosmos 1833 Rocket 2.9 16:50:37 10° SW 16:56:15 73° WNW 17:01:21 13° NNE
MOS 1-B Rocket 4.2 16:51:18 10° NNE 16:57:04 51° E 17:03:34 10° S
CZ-2C R/B 4.4 16:52:49 10° SSW 16:57:18 38° W 17:01:44 10° NNW
Cosmos 841 Rocket 3.4 16:52:23 10° SSW 16:57:32 75° ESE 17:01:46 15° NNE
Okean O Rocket 1.9 16:54:27 10° SE 16:58:42 45° ENE 17:02:59 10° N
Cosmos 1470 Rocket 3.9 16:55:11 10° N 16:59:27 42° ENE 17:03:41 10° SE
Cosmos 1328 Rocket 4.0 16:57:06 10° SSE 17:01:15 40° E 17:03:23 24° NE
USA 306 2.8 16:57:22 10° WNW 17:01:38 75° NNE 17:03:36 31° E
H-2A R/B 1.9 16:57:09 10° SSE 17:02:17 81° ENE 17:07:19 10° NNW
Cosmos 1939 Rocket 4.1 16:59:43 10° S 17:03:39 44° W 17:07:35 10° NNW
Cosmos 2219 Rocket 3.6 17:00:10 10° NNW 17:04:15 20° NNE 17:04:47 20° NE
NOSS 3-4 (A) 4.4 16:58:26 10° NW 17:04:20 35° NNE 17:07:33 24° ENE
NOSS 3-4 (C) 4.4 16:58:32 10° NW 17:04:25 35° NNE 17:07:38 24° ENE
ISS -1.4 17:01:50 10° W 17:04:37 23° SSW 17:07:22 10° SSE
COSMOS 2406 3.3 16:59:38 10° SW 17:05:24 79° WNW 17:10:10 16° NNE
EP 1 4.3 17:03:23 10° SW 17:06:28 88° SE 17:06:51 63° NE
CZ-2C R/B 2.9 17:02:59 17° NNE 17:06:43 43° E 17:11:37 10° S
ATLAS 2AS CENTAUR R/B 3.8 17:00:01 10° WNW 17:06:50 33° N 17:10:37 21° NE
Meteor 2-21 Rocket 4.4 17:00:49 10° NNW 17:06:57 87° W 17:13:01 10° S
Cosmos 1125 Rocket 3.6 17:02:31 10° NNW 17:07:40 53° ENE 17:12:49 10° SE
Cosmos 1500 4.1 17:05:59 10° NNW 17:09:36 49° W 17:13:12 10° S
SKYMED 2 3.9 17:11:18 33° NE 17:12:40 44° E 17:16:49 10° S
USA 234 3.8 17:06:44 10° SE 17:13:10 58° SW 17:19:38 10° WNW
Sich 1 4.3 17:13:06 10° NNW 17:17:09 41° W 17:21:12 10° SSW
Cosmos 1782 3.4 17:13:51 10° SSW 17:17:47 58° WNW 17:21:44 10° N
Cosmos 1655 Rocket 4.0 17:11:28 10° N 17:17:49 60° ENE 17:24:06 10° SSE
CZ-2D R/B 3.8 17:15:12 10° S 17:18:59 60° W 17:22:47 10° NNW
USA 307 2.8 17:17:00 10° WNW 17:21:16 81° NNE 17:22:25 48° E
CZ-4B R/B 3.1 17:15:53 10° SSE 17:21:17 89° ENE 17:26:39 10° NNW
Cosmos 2180 Rocket 4.4 17:17:34 10° S 17:23:49 66° E 17:30:02 10° NNE
Meteor 2-6 Rocket 4.2 17:18:22 10° S 17:24:00 63° E 17:28:31 16° NNE
ATLAS 5 CENTAUR R/B 2.0 17:17:28 10° NW 17:25:26 86° NE 17:26:27 45° SE
SJ-11-01 4.2 17:20:50 10° SSE 17:25:35 80° ENE 17:30:21 10° NNW
deb Chang Zheng 4 3.6 17:27:05 10° SSE 17:31:24 80° WSW 17:35:44 10° NNW
ERBS 3.6 17:28:34 10° WNW 17:30:53 29° NNW 17:30:53 29° NNW
Cosmos 2237 4.3 17:27:29 10° NNW 17:33:08 55° NE 17:34:57 39° ESE
Cosmos 2360 Rocket 2.4 17:31:18 10° NNW 17:36:47 46° NE 17:37:21 44° ENE
Cosmos 540 Rocket 4.4 17:32:31 10° SW 17:37:26 46° WNW 17:41:13 16° N
Lacrosse 5 rocket 2.0 17:33:52 10° WNW 17:37:40 50° SW 17:39:14 31° SSE
H-2A R/B 4.5 17:40:45 16° N 17:40:45 16° N 17:41:37 10° N
Cosmos 1666 3.9 17:35:09 10° NNW 17:38:41 41° W 17:42:11 10° SSW
ATLAS CENTAUR R/B 3.6 17:37:30 10° NW 17:40:31 17° N 17:41:01 17° N
USA 308 2.7 17:39:35 10° WNW 17:43:52 87° SSW 17:44:08 78° SE
Cosmos 1515 Rocket 4.0 17:41:28 10° S 17:44:48 46° SSE 17:44:48 46° SSE
Meteor 1-11 Rocket 3.6 17:45:50 10° NNW 17:51:29 86° ENE 17:57:15 10° SSE
COSMOS 2428 4.0 17:48:33 10° NNW 17:52:06 25° NNE 17:52:06 25° NNE
Meteor 1-10 Rocket 4.1 17:47:45 10° S 17:53:31 79° E 17:56:15 32° NNE
COSMOS 2455 3.2 17:47:54 10° SW 17:53:52 60° NW 17:56:40 32° NNE
CZ-4 R/B 3.6 17:59:18 15° N 17:59:18 15° N 18:00:03 10° NNW
Cosmos 2322 Rocket 2.1 17:52:24 10° NNW 17:58:09 88° ENE 18:00:16 41° SSE
Cosmos 1814 Rocket 4.4 17:53:34 10° SW 17:58:43 60° WNW 18:00:57 33° N
Cosmos 921 Rocket 3.4 17:54:39 10° SSW 17:57:55 54° SSW 17:57:55 54° SSW
Cosmos 1570 Rocket 4.2 17:54:35 10° SW 17:59:48 67° WNW 18:01:47 38° N
SL-08 RB Rocket 3.9 17:56:08 10° S 18:00:45 71° WSW 18:05:21 10° NNW
COSMO-SKYMED 1 2.8 17:59:55 51° NNW 18:00:49 67° WNW 18:05:07 10° SSW
CZ-4C R/B 4.2 17:56:51 10° NW 18:03:33 41° WSW 18:11:14 10° S
Cosmos 1356 Rocket 3.9 18:00:42 10° NNW 18:04:07 55° NW 18:04:07 55° NW
USA 305 3.5 18:05:02 10° WNW 18:08:38 56° WSW 18:08:38 56° WSW
Meteor 2-15 Rocket 4.3 18:04:24 10° S 18:10:33 89° E 18:14:07 27° N
YAOGAN 1 3.8 18:14:04 34° NNW 18:14:04 34° NNW 18:16:34 10° NNW
Cosmos 2266 Rocket 4.5 18:10:34 10° NNW 18:16:52 62° W 18:23:10 10° S
SL-16 R/B 2.8 18:11:39 10° NW 18:17:12 56° WSW 18:21:04 20° S
Cosmos 2237 Rocket 4.1 18:16:03 10° NNW 18:17:59 17° N 18:17:59 17° N
USA 267 3.3 18:19:25 57° NE 18:20:43 72° NNW 18:27:14 10° WSW
Cosmos 2082 Rocket 3.3 18:17:27 10° WSW 18:22:47 41° NW 18:24:53 30° N
GEOS 3 Rocket 3.8 18:30:35 66° SW 18:30:35 66° SW 18:35:45 10° NW
Cosmos 2333 Rocket 3.1 18:27:23 10° NNW 18:31:05 39° N 18:31:05 39° N
Okean O Rocket 3.8 18:31:32 10° SSW 18:35:15 25° W 18:38:59 10° NW
SL-16 R/B 4.5 18:37:32 10° NNW 18:38:38 13° N 18:38:38 13° N
CZ-2C R/B 4.0 18:44:29 22° NNW 18:46:56 34° WNW 18:51:33 10° SW
Cosmos 2219 Rocket 3.6 18:43:42 10° NNW 18:46:30 29° NNW 18:46:30 29° NNW
NOSS 3-4 (A) 4.0 18:49:29 10° NW 18:55:00 61° NNW 18:55:00 61° NNW
ATLAS CENTAUR R/B 4.1 18:51:14 10° W 18:54:28 25° WNW 18:54:28 25° WNW
NOSS 3-4 (C) 4.0 18:49:35 10° NW 18:55:04 60° NNW 18:55:04 60° NNW
ATLAS 2AS CENTAUR R/B 3.5 18:52:16 10° NW 18:58:02 43° N 18:58:02 43° N
Cosmos 2360 Rocket 3.7 19:15:29 10° NW 19:19:09 33° WNW 19:19:09 33° WNW
Cosmos 2322 Rocket 4.5 19:37:36 10° WNW 19:41:28 19° W 19:42:10 19° WSW
